Novato, CA

1:01 AM PST on December 06, 2019 (GMT -0800)
Gnoss

Weather History for KDVO - October, 2019

Change the Weather History Date:

Friday, October 4, 2019

  Actual Average (KAPC) Record (KAPC)
Temperature  
Mean Temperature 61 °F -  
Max Temperature 78 °F 82 °F 94 °F (2014)
Min Temperature 44 °F 51 °F 35 °F (2009)
Degree Days  
Heating Degree Days 4    
Growing Degree Days 11 (Base 50)    
Moisture  
Dew Point 38 °F    
Average Humidity 50    
Maximum Humidity 82    
Minimum Humidity 17    
Precipitation  
Precipitation 0.00 in - - ()
Sea Level Pressure  
Sea Level Pressure 30.11 in    
Wind  
Wind Speed 4 mph ()    
Max Wind Speed 14 mph    
Max Gust Speed 20 mph    
Visibility 9.8 miles    
Events      
Averages and records for this station are not official NWS values.
T = Trace of Precipitation, MM = Missing Value Source: Averaged Metar Reports

Daily Weather History Graph

Daily Weather History Graph

Search for Another Location

Airport or City:

Astronomy

Oct. 04, 2019 Rise Set
Actual Time 7:08 AM PDT 6:48 PM PDT
Civil Twilight 6:42 AM PDT 7:15 PM PDT
Nautical Twilight 6:11 AM PDT 7:45 PM PDT
Astronomical Twilight 5:40 AM PDT 8:16 PM PDT
Moon 1:40 PM PDT (10/4) 11:27 PM PDT (10/4)
Length of Visible Light 12h 32m
Length of Day
11h 40m
Waxing Crescent, 41% of the Moon is Illuminated
Oct 4
Waxing Crescent
Oct 5
First Quarter
Oct 13
Full
Oct 21
Last Quarter
Oct 27
New

Hourly Weather History & Observations

Time (PDT) Temp. Windchill Dew Point Humidity Pressure Visibility Wind Dir Wind Speed Gust Speed Precip Events Conditions
12:15 AM 51.8 °F - 41.0 °F 67% 30.05 in 10.0 mi ESE 4.6 mph - N/A   Clear
12:35 AM 51.8 °F - 41.0 °F 67% 30.05 in 10.0 mi East 3.5 mph - N/A   Clear
12:55 AM 50.0 °F - 41.0 °F 71% 30.05 in 10.0 mi Calm Calm - N/A   Clear
1:15 AM 51.8 °F - 39.2 °F 62% 30.05 in 10.0 mi West 5.8 mph - N/A   Clear
1:35 AM 51.8 °F - 37.4 °F 58% 30.05 in 10.0 mi Variable 5.8 mph - N/A   Clear
1:55 AM 50.0 °F - 39.2 °F 66% 30.05 in 10.0 mi ESE 8.1 mph - N/A   Clear
2:15 AM 50.0 °F - 41.0 °F 71% 30.06 in 10.0 mi ENE 6.9 mph - N/A   Clear
2:35 AM 50.0 °F - 39.2 °F 66% 30.06 in 10.0 mi East 6.9 mph - N/A   Clear
2:55 AM 50.0 °F - 39.2 °F 66% 30.07 in 10.0 mi Variable 3.5 mph - N/A   Clear
3:15 AM 50.0 °F - 39.2 °F 66% 30.07 in 10.0 mi NE 5.8 mph - N/A   Clear
3:35 AM 51.8 °F - 39.2 °F 62% 30.07 in 10.0 mi Variable 4.6 mph - N/A   Clear
3:55 AM 51.8 °F - 39.2 °F 62% 30.08 in 10.0 mi Calm Calm - N/A   Clear
4:15 AM 50.0 °F - 37.4 °F 62% 30.08 in 10.0 mi NE 3.5 mph - N/A   Clear
4:35 AM 51.8 °F - 37.4 °F 58% 30.08 in 10.0 mi Calm Calm - N/A   Clear
4:55 AM 48.2 °F - 37.4 °F 66% 30.08 in 9.0 mi West 6.9 mph - N/A   Clear
5:15 AM 50.0 °F - 37.4 °F 62% 30.08 in 3.0 mi East 4.6 mph - N/A   Haze
5:35 AM 50.0 °F - 37.4 °F 62% 30.08 in 10.0 mi Variable 5.8 mph 11.5 mph N/A   Clear
5:55 AM 50.0 °F - 37.4 °F 62% 30.09 in 10.0 mi Calm Calm - N/A   Clear
6:15 AM 50.0 °F - 37.4 °F 62% 30.10 in 10.0 mi NW 5.8 mph - N/A   Clear
6:35 AM 48.2 °F - 37.4 °F 66% 30.11 in 10.0 mi Calm Calm - N/A   Clear
6:55 AM 48.2 °F - 37.4 °F 66% 30.11 in 10.0 mi Calm Calm - N/A   Clear
7:15 AM 48.2 °F - 39.2 °F 71% 30.12 in 10.0 mi Calm Calm - N/A   Clear
7:35 AM 44.6 °F 42.2 °F 37.4 °F 76% 30.13 in 10.0 mi ENE 4.6 mph - N/A   Clear
7:55 AM 46.4 °F - 39.2 °F 76% 30.13 in 10.0 mi Calm Calm - N/A   Clear
8:15 AM 50.0 °F - 41.0 °F 71% 30.13 in 10.0 mi NNE 6.9 mph - N/A   Clear
8:35 AM 55.4 °F - 41.0 °F 58% 30.14 in 10.0 mi NNW 9.2 mph - N/A   Clear
8:55 AM 59.0 °F - 39.2 °F 48% 30.15 in 10.0 mi NNW 11.5 mph - N/A   Clear
9:15 AM 60.8 °F - 39.2 °F 45% 30.15 in 10.0 mi NNW 11.5 mph 19.6 mph N/A   Clear
9:35 AM 62.6 °F - 37.4 °F 39% 30.15 in 10.0 mi NNW 11.5 mph - N/A   Clear
9:55 AM 62.6 °F - 37.4 °F 39% 30.16 in 10.0 mi NNW 12.7 mph - N/A   Clear
10:15 AM 64.4 °F - 37.4 °F 37% 30.16 in 10.0 mi NNW 10.4 mph - N/A   Clear
10:35 AM 66.2 °F - 35.6 °F 32% 30.15 in 10.0 mi NNW 8.1 mph - N/A   Clear
10:55 AM 68.0 °F - 35.6 °F 30% 30.15 in 10.0 mi NNW 6.9 mph - N/A   Clear
11:15 AM 68.0 °F - 35.6 °F 30% 30.15 in 10.0 mi Variable 6.9 mph - N/A   Clear
11:35 AM 69.8 °F - 35.6 °F 28% 30.14 in 10.0 mi NE 4.6 mph - N/A   Clear
11:55 AM 71.6 °F - 33.8 °F 25% 30.14 in 10.0 mi Variable 4.6 mph - N/A   Clear
12:15 PM 71.6 °F - 33.8 °F 25% 30.14 in 10.0 mi Variable 3.5 mph - N/A   Clear
12:35 PM 71.6 °F - 33.8 °F 25% 30.14 in 10.0 mi Variable 3.5 mph - N/A   Clear
12:55 PM 73.4 °F - 33.8 °F 23% 30.13 in 9.0 mi Calm Calm - N/A   Clear
1:15 PM 75.2 °F - 33.8 °F 22% 30.13 in 9.0 mi Calm Calm - N/A   Clear
1:35 PM 75.2 °F - 32.0 °F 21% 30.12 in 10.0 mi NE 5.8 mph 11.5 mph N/A   Clear
1:55 PM 77.0 °F - 32.0 °F 19% 30.11 in 9.0 mi Variable 6.9 mph - N/A   Clear
2:15 PM 77.0 °F - 30.2 °F 18% 30.10 in 10.0 mi Variable 5.8 mph 11.5 mph N/A   Clear
2:35 PM 77.0 °F - 30.2 °F 18% 30.10 in 10.0 mi NW 8.1 mph - N/A   Clear
2:55 PM 78.8 °F - 30.2 °F 17% 30.10 in 10.0 mi NNW 8.1 mph - N/A   Clear
3:15 PM 78.8 °F - 30.2 °F 17% 30.09 in 10.0 mi NNW 5.8 mph 11.5 mph N/A   Clear
3:35 PM 77.0 °F - 33.8 °F 21% 30.09 in 10.0 mi WNW 10.4 mph - N/A   Clear
3:55 PM 77.0 °F - 35.6 °F 22% 30.09 in 10.0 mi WNW 11.5 mph 17.3 mph N/A   Clear
4:15 PM 77.0 °F - 37.4 °F 24% 30.09 in 10.0 mi Variable 6.9 mph 15.0 mph N/A   Clear
4:35 PM 75.2 °F - 37.4 °F 25% 30.09 in 10.0 mi WSW 11.5 mph - N/A   Clear
4:55 PM 73.4 °F - 37.4 °F 27% 30.10 in 10.0 mi WSW 13.8 mph 19.6 mph N/A   Clear
5:15 PM 71.6 °F - 39.2 °F 31% 30.10 in 10.0 mi SW 10.4 mph - N/A   Clear
5:35 PM 71.6 °F - 41.0 °F 33% 30.09 in 10.0 mi WSW 12.7 mph - N/A   Clear
5:55 PM 69.8 °F - 41.0 °F 35% 30.09 in 10.0 mi WSW 9.2 mph - N/A   Clear
6:15 PM 68.0 °F - 42.8 °F 40% 30.09 in 10.0 mi SSW 3.5 mph 11.5 mph N/A   Clear
6:35 PM 66.2 °F - 42.8 °F 43% 30.09 in 10.0 mi ENE 5.8 mph - N/A   Clear
6:55 PM 62.6 °F - 41.0 °F 45% 30.10 in 10.0 mi ESE 4.6 mph - N/A   Clear
7:15 PM 62.6 °F - 44.6 °F 52% 30.10 in 10.0 mi Calm Calm - N/A   Clear
7:35 PM 60.8 °F - 44.6 °F 55% 30.11 in 10.0 mi Variable 4.6 mph - N/A   Clear
7:55 PM 60.8 °F - 44.6 °F 55% 30.11 in 10.0 mi Calm Calm - N/A   Clear
8:15 PM 53.6 °F - 39.2 °F 58% 30.11 in 10.0 mi Calm Calm - N/A   Clear
8:35 PM 53.6 °F - 42.8 °F 67% 30.11 in 10.0 mi Calm Calm - N/A   Clear
8:50 PM 51.8 °F - 41.0 °F 67% 30.12 in 10.0 mi Calm Calm - N/A   Clear
9:15 PM 50.0 °F - 41.0 °F 71% 30.12 in 10.0 mi Calm Calm - N/A   Clear
9:35 PM 51.8 °F - 42.8 °F 71% 30.12 in 10.0 mi Calm Calm - N/A   Clear
9:55 PM 51.8 °F - 42.8 °F 71% 30.12 in 10.0 mi Calm Calm - N/A   Clear
10:15 PM 48.2 °F - 39.2 °F 71% 30.12 in 10.0 mi Calm Calm - N/A   Clear
10:35 PM 51.8 °F - 42.8 °F 71% 30.13 in 10.0 mi Calm Calm - N/A   Clear
10:55 PM 48.2 °F - 42.8 °F 82% 30.13 in 10.0 mi Calm Calm - N/A   Clear
11:15 PM 50.0 °F - 42.8 °F 76% 30.13 in 10.0 mi Calm Calm - N/A   Clear
11:35 PM 51.8 °F - 44.6 °F 76% 30.13 in 10.0 mi Calm Calm - N/A   Clear
11:55 PM 48.2 °F - 41.0 °F 76% 30.13 in 10.0 mi Calm Calm - N/A   Clear